Location: Newark
(49.3000°N, 9.4667°E)
Time: 21:45:52
(UTC+00:00)

S-56A Canister/Altair - Pass Details

Date: 19 May 2019
Orbit: 633 x 2499 km, 38.9° (Epoch: 17 June)

Event Time Altitude Azimuth Distance (km) Brightness Sun altitude
Exits shadow 02:28:28 11° 219° (SW) 3,128 10.0 -9.2°
Maximum altitude 02:35:36 38° 156° (SSE) 2,273 9.8 -8.4°
Drops below altitude 10° 02:46:02 10° 95° (E) 4,535 12.1 -7.1°
Sets 02:50:29 0° 89° (E) 5,782 12.9 -6.6°
